Location: GMARS
(34.2910°N, 116.3838°W)
Time: 17:19:51
(UTC-07:00)

Hubble Space Telescope - Visible Passes

Search period start: 22 April 2019 00:00
Search period end: 02 May 2019 00:00
Orbit: 537 x 540 km, 28.5° (Epoch: 21 April)

Date Brightness Start Highest point End Pass type
(mag) Time Alt. Az. Time Alt. Az. Time Alt. Az.
23 Apr 3.2 04:15:09 11° SSE 04:15:09 11° SSE 04:16:22 10° SE visible
24 Apr 3.1 04:05:09 14° SE 04:05:09 14° SE 04:06:37 10° SE visible
25 Apr 3.1 03:55:08 15° SE 03:55:08 15° SE 03:56:31 10° ESE visible
25 Apr 1.8 05:30:47 10° WSW 05:34:31 33° S 05:38:14 10° ESE visible
26 Apr 3.1 03:45:06 15° SE 03:45:06 15° SE 03:46:16 10° ESE visible
26 Apr 1.7 05:20:26 11° WSW 05:23:58 35° S 05:27:45 10° ESE visible
27 Apr 3.2 03:35:03 14° ESE 03:35:03 14° ESE 03:35:55 10° ESE visible
27 Apr 1.6 05:10:23 15° WSW 05:13:25 36° S 05:17:13 10° ESE visible
28 Apr 3.4 03:25:01 13° ESE 03:25:01 13° ESE 03:25:32 10° ESE visible
28 Apr 1.6 05:00:21 18° WSW 05:02:52 36° S 05:06:41 10° ESE visible
29 Apr 3.6 03:15:02 10° ESE 03:15:02 10° ESE 03:15:05 10° ESE visible
29 Apr 1.5 04:50:22 23° SW 04:52:19 36° S 04:56:07 10° ESE visible
30 Apr 1.5 04:40:26 27° SW 04:41:45 35° S 04:45:32 10° ESE visible
01 May 1.6 04:30:34 31° SSW 04:31:12 33° S 04:34:56 10° ESE visible
